Tracking 29892 objects as of 21-Nov-2024
HD Live streaming from Space Station
objects crossing your sky now

STARLINK-4503

Track STARLINK-4503 now!
10-day predictions
STARLINK-4503 is classified as:


NORAD ID: 53528
Int'l Code: 2022-101B
Perigee: 545.8 km
Apogee: 547.9 km
Inclination: 53.2 °
Period: 95.4 minutes
Semi major axis: 6917 km
RCS: Unknown
Launch date: August 19, 2022
Source: United States (US)
Launch site: AIR FORCE EASTERN TEST RANGE (AFETR)
Your satellite tracking list
Your tracking list is empty




NASA's NSSDC Master Catalog

Two Line Element Set (TLE):
1 53528U 22101B   24325.63310314  .00000397  00000-0  43056-4 0  9997
2 53528  53.2172  42.2405 0001556  99.5539 260.5629 15.08852373124592
Source of the keplerian elements: AFSPC